FW4637 Weather Reports


Display with metric or nautical units.
time (UTC)temp
F
wind
direction
speed
MPH
gust
MPH
rain 1hr
in
rain 24hr
in
rain mn
in
humidity
%
barometer
mb
20260507003503 62 267 5.0 13.0 0.00 0.00 0.00 79 1017.9
20260507003219 62 266 5.0 13.0 0.00 0.00 0.00 79 1017.9
20260507002503 62 268 6.0 15.0 0.00 0.00 0.00 79 1017.9
20260507002003 62 272 5.0 16.0 0.00 0.00 0.00 80 1018.0
20260507001503 62 269 6.0 16.0 0.00 0.00 0.00 79 1017.9
20260507001003 62 269 6.0 13.0 0.00 0.00 0.00 79 1017.9
20260507000503 62 273 6.0 13.0 0.00 0.00 0.00 79 1017.9
20260507000003 62 272 6.0 13.0 0.00 0.00 0.00 78 1017.9
20260506235503 62 266 6.0 16.0 0.00 0.00 0.00 79 1018.0
20260506235003 62 263 6.0 16.0 0.00 0.00 0.00 79 1018.0
20260506234503 62 265 6.0 14.0 0.00 0.00 0.00 78 1018.0
20260506234217 62 267 6.0 12.0 0.00 0.00 0.00 79 1018.1
20260506233503 62 269 7.0 20.0 0.00 0.00 0.00 79 1018.1
20260506233003 62 268 7.0 20.0 0.00 0.00 0.00 79 1018.2
20260506232715 62 267 7.0 16.0 0.00 0.00 0.00 79 1018.1
20260506232003 62 267 6.0 17.0 0.00 0.00 0.00 78 1018.1
20260506231718 62 266 7.0 17.0 0.00 0.00 0.00 79 1018.2
20260506231003 62 267 7.0 18.0 0.00 0.00 0.00 78 1018.3
20260506230503 63 270 7.0 18.0 0.00 0.00 0.00 77 1018.3
20260506230003 64 267 6.0 17.0 0.00 0.00 0.00 77 1018.1
20260506225503 64 271 5.0 12.0 0.00 0.00 0.00 77 1018.2
20260506225003 64 273 5.0 14.0 0.00 0.00 0.00 77 1018.3
20260506224503 64 269 5.0 14.0 0.00 0.00 0.00 77 1018.6
20260506224003 64 270 4.0 12.0 0.00 0.00 0.00 76 1018.7
20260506223503 64 272 5.0 14.0 0.00 0.00 0.00 77 1018.7
20260506223218 64 270 6.0 14.0 0.00 0.00 0.00 77 1018.8
20260506222503 64 265 6.0 13.0 0.00 0.00 0.00 76 1018.4
20260506222003 64 270 5.0 13.0 0.00 0.00 0.00 75 1018.8
20260506221717 65 275 5.0 13.0 0.00 0.00 0.00 75 1018.8
20260506221003 65 277 4.0 10.0 0.00 0.00 0.00 74 1019.0
20260506220719 65 276 4.0 14.0 0.00 0.00 0.00 74 1019.0
20260506220003 64 271 5.0 14.0 0.00 0.00 0.00 75 1019.1
20260506215503 64 270 5.0 12.0 0.00 0.00 0.00 75 1019.3
20260506215003 65 276 4.0 12.0 0.00 0.00 0.00 75 1019.2
20260506214503 65 276 4.0 11.0 0.00 0.00 0.00 74 1019.2
20260506214003 66 276 4.0 11.0 0.00 0.00 0.00 74 1019.3
20260506213503 65 271 4.0 11.0 0.00 0.00 0.00 74 1019.3
20260506213218 65 266 4.0 11.0 0.00 0.00 0.00 74 1019.2
20260506212503 65 262 4.0 11.0 0.00 0.00 0.00 74 1019.3
20260506212003 65 267 4.0 10.0 0.00 0.00 0.00 74 1019.4
20260506211503 66 273 4.0 10.0 0.00 0.00 0.00 74 1019.5
20260506211003 66 264 4.0 13.0 0.00 0.00 0.00 73 1019.4
20260506210503 66 261 4.0 13.0 0.00 0.00 0.00 73 1019.3
20260506210003 66 261 3.0 10.0 0.00 0.00 0.00 73 1019.5
20260506205503 66 261 3.0 10.0 0.00 0.00 0.00 73 1019.3
20260506205003 66 251 4.0 11.0 0.00 0.00 0.00 73 1019.6
20260506204503 66 256 4.0 11.0 0.00 0.00 0.00 72 1019.4
20260506204003 67 267 3.0 11.0 0.00 0.00 0.00 72 1019.2
20260506203716 67 265 4.0 10.0 0.00 0.00 0.00 73 1019.6
20260506203217 66 258 3.0 11.0 0.00 0.00 0.00 73 1019.5
20260506202503 67 261 3.0 11.0 0.00 0.00 0.00 72 1019.6
20260506202215 66 263 3.0 11.0 0.00 0.00 0.00 74 1019.5
20260506201503 66 268 4.0 9.0 0.00 0.00 0.00 73 1019.8
20260506201003 66 280 4.0 9.0 0.00 0.00 0.00 73 1019.8
20260506200503 67 283 3.0 9.0 0.00 0.00 0.00 72 1019.7
20260506200003 67 270 3.0 9.0 0.00 0.00 0.00 71 1019.6
20260506195503 67 265 4.0 9.0 0.00 0.00 0.00 71 1019.7
20260506195003 67 267 4.0 9.0 0.00 0.00 0.00 71 1019.7
20260506194718 67 267 3.0 9.0 0.00 0.00 0.00 70 1019.8
20260506194003 68 269 3.0 8.0 0.00 0.00 0.00 71 1019.7
20260506193503 67 275 3.0 8.0 0.00 0.00 0.00 71 1019.8
20260506193003 67 277 3.0 8.0 0.00 0.00 0.00 70 1019.9
20260506192503 68 299 2.0 7.0 0.00 0.00 0.00 69 1020.0
20260506192003 68 279 2.0 6.0 0.00 0.00 0.00 69 1020.1
20260506191503 67 259 2.0 8.0 0.00 0.00 0.00 70 1020.1
20260506191003 68 257 2.0 8.0 0.00 0.00 0.00 69 1020.2
20260506190503 67 248 2.0 8.0 0.00 0.00 0.00 71 1020.4
20260506190003 67 260 2.0 8.0 0.00 0.00 0.00 71 1020.3
20260506185503 66 278 2.0 7.0 0.00 0.00 0.00 71 1020.3
20260506185003 67 297 2.0 6.0 0.00 0.00 0.00 71 1020.3
20260506184503 66 299 2.0 6.0 0.00 0.00 0.00 71 1020.4
20260506184003 66 271 2.0 5.0 0.00 0.00 0.00 72 1020.2
20260506183716 66 255 1.0 5.0 0.00 0.00 0.00 72 1020.4
20260506183003 65 303 2.0 5.0 0.00 0.00 0.00 73 1020.3
20260506182503 66 318 2.0 5.0 0.00 0.00 0.00 72 1020.4
20260506182003 66 301 2.0 5.0 0.00 0.00 0.00 71 1020.3
20260506181503 66 80 3.0 8.0 0.00 0.00 0.00 71 1020.3
20260506181003 66 19 3.0 8.0 0.00 0.00 0.00 72 1020.3
20260506180503 66 323 3.0 7.0 0.00 0.00 0.00 71 1020.3
20260506180004 67 210 2.0 7.0 0.00 0.00 0.00 70 1020.2
20260506175503 66 37 0.0 3.0 0.00 0.00 0.00 71 1020.2
20260506175003 65 34 1.0 4.0 0.00 0.00 0.00 72 1020.2
20260506174503 65 37 1.0 4.0 0.00 0.00 0.00 73 1020.2
20260506174003 64 19 1.0 3.0 0.00 0.00 0.00 73 1020.2
20260506173503 64 19 1.0 3.0 0.00 0.00 0.00 74 1020.1
20260506173003 64 21 1.0 3.0 0.00 0.00 0.00 74 1020.2
20260506172503 63 11 1.0 3.0 0.00 0.00 0.00 75 1020.4
20260506172003 63 353 1.0 4.0 0.00 0.00 0.00 75 1020.4
20260506171503 63 335 1.0 4.0 0.00 0.00 0.00 75 1020.4
20260506171003 63 96 0.0 2.0 0.00 0.00 0.00 76 1020.5
20260506170503 62 62 1.0 3.0 0.00 0.00 0.00 77 1020.6
20260506170003 62 36 1.0 3.0 0.00 0.00 0.00 76 1020.5
20260506165503 62 21 0.0 3.0 0.00 0.00 0.00 76 1020.4
20260506165003 62 24 0.0 2.0 0.00 0.00 0.00 77 1020.5
20260506164503 62 12 0.0 3.0 0.00 0.00 0.00 76 1020.5
20260506164003 62 54 0.0 3.0 0.00 0.00 0.00 77 1020.5
20260506163503 61 83 1.0 3.0 0.00 0.00 0.00 77 1020.5
20260506163003 61 69 1.0 2.0 0.00 0.00 0.00 78 1020.5
20260506162503 61 54 1.0 3.0 0.00 0.00 0.00 78 1020.5
20260506162003 61 61 0.0 3.0 0.00 0.00 0.00 77 1020.6
20260506161503 61 82 0.0 3.0 0.00 0.00 0.00 78 1020.5
20260506161216 60 81 0.0 2.0 0.00 0.00 0.00 78 1020.7
20260506160717 60 79 0.0 2.0 0.00 0.00 0.00 79 1020.5
20260506160003 60 29 1.0 3.0 0.00 0.00 0.00 79 1020.5
20260506155503 60 15 1.0 3.0 0.00 0.00 0.00 79 1020.5
20260506155003 60 360 1.0 4.0 0.00 0.00 0.00 79 1020.5
20260506154503 60 21 1.0 4.0 0.00 0.00 0.00 78 1020.5
20260506154003 60 33 1.0 4.0 0.00 0.00 0.00 78 1020.6
20260506153503 60 21 1.0 4.0 0.00 0.00 0.00 78 1020.4
20260506153003 60 17 1.0 4.0 0.00 0.00 0.00 78 1020.5
20260506152503 60 348 1.0 4.0 0.00 0.00 0.00 80 1020.4
20260506152003 60 315 0.0 4.0 0.00 0.00 0.00 79 1020.4
20260506151503 60 358 1.0 4.0 0.00 0.00 0.00 80 1020.4
20260506151003 60 347 1.0 4.0 0.00 0.00 0.00 79 1020.3
20260506150503 60 331 0.0 3.0 0.00 0.01 0.00 78 1020.3
20260506150003 60 347 0.0 2.0 0.00 0.01 0.00 80 1020.3
20260506145503 60 341 0.0 2.0 0.00 0.01 0.00 81 1020.3
20260506145003 59 268 0.0 2.0 0.00 0.01 0.00 82 1020.3
20260506144503 59 289 0.0 2.0 0.00 0.01 0.00 82 1020.3
20260506144003 59 329 0.0 3.0 0.00 0.01 0.00 82 1020.2
20260506143718 59 326 0.0 3.0 0.00 0.01 0.00 82 1020.4
20260506143219 59 274 0.0 3.0 0.00 0.01 0.00 82 1020.3
20260506142716 59 229 1.0 3.0 0.00 0.01 0.00 83 1020.3
20260506142003 58 256 0.0 3.0 0.00 0.01 0.00 83 1020.2
20260506141503 58 267 0.0 3.0 0.00 0.01 0.00 83 1020.1
20260506141003 58 268 0.0 2.0 0.00 0.01 0.00 83 1020.0
20260506140716 58 266 0.0 2.0 0.00 0.01 0.00 83 1020.0
20260506140003 58 265 0.0 2.0 0.00 0.01 0.00 84 1019.9
20260506135503 57 265 0.0 2.0 0.00 0.01 0.00 84 1019.8
20260506135003 57 271 0.0 1.0 0.00 0.01 0.00 85 1019.8
20260506134503 56 271 0.0 1.0 0.00 0.01 0.00 85 1019.7
20260506134003 56 270 0.0 1.0 0.00 0.01 0.00 85 1019.7
20260506133503 56 270 0.0 2.0 0.00 0.01 0.00 85 1019.7
20260506133003 56 270 0.0 2.0 0.00 0.01 0.00 85 1019.7
20260506132716 56 267 0.0 2.0 0.00 0.01 0.00 85 1019.7
20260506132003 56 255 1.0 2.0 0.00 0.01 0.00 85 1019.6
20260506131503 56 270 1.0 2.0 0.00 0.01 0.00 85 1019.5
20260506131003 56 278 0.0 2.0 0.00 0.01 0.00 85 1019.5
20260506130503 56 340 0.0 2.0 0.00 0.01 0.00 85 1019.5
20260506130003 56 305 0.0 2.0 0.00 0.01 0.00 85 1019.4
20260506125503 56 256 0.0 2.0 0.00 0.01 0.00 85 1019.5
20260506125003 56 355 1.0 4.0 0.00 0.01 0.00 86 1019.3
20260506124503 56 357 1.0 4.0 0.00 0.01 0.00 85 1019.4
20260506124003 56 3 1.0 3.0 0.00 0.01 0.00 85 1019.4
20260506123503 56 2 1.0 4.0 0.00 0.01 0.00 85 1019.4
20260506123003 56 358 1.0 4.0 0.00 0.01 0.00 85 1019.3
20260506122503 56 351 1.0 4.0 0.00 0.01 0.00 85 1019.3
20260506122003 56 328 0.0 3.0 0.00 0.01 0.00 84 1019.2
20260506121717 56 322 0.0 3.0 0.00 0.01 0.00 84 1019.2
20260506121219 56 334 1.0 3.0 0.00 0.01 0.00 84 1019.2
20260506120503 56 302 1.0 3.0 0.00 0.01 0.00 84 1019.2
20260506120003 56 292 0.0 2.0 0.00 0.01 0.00 84 1019.1
20260506115503 56 274 0.0 2.0 0.00 0.01 0.00 84 1019.2
20260506115003 56 267 0.0 3.0 0.00 0.01 0.00 84 1019.1
20260506114503 56 265 0.0 3.0 0.00 0.01 0.00 84 1019.1
20260506114003 56 262 0.0 3.0 0.00 0.01 0.00 84 1019.0
20260506113717 56 261 0.0 3.0 0.00 0.01 0.00 84 1019.1
20260506113003 56 300 0.0 2.0 0.00 0.01 0.00 83 1019.0
20260506112503 56 318 0.0 3.0 0.00 0.01 0.00 83 1019.0
20260506112003 56 304 0.0 3.0 0.00 0.01 0.00 83 1018.9
20260506111503 56 272 0.0 3.0 0.00 0.01 0.00 84 1018.9
20260506111218 56 272 0.0 3.0 0.00 0.01 0.00 84 1018.9
20260506110503 56 261 0.0 1.0 0.00 0.01 0.00 84 1018.8
20260506110003 56 272 0.0 2.0 0.00 0.01 0.00 85 1018.8
20260506105503 56 304 1.0 4.0 0.00 0.01 0.00 85 1018.8
20260506105218 56 312 1.0 4.0 0.00 0.01 0.00 85 1018.8
20260506104503 56 309 0.0 2.0 0.00 0.01 0.00 86 1018.8
20260506104003 56 269 1.0 4.0 0.00 0.01 0.00 86 1018.8
20260506103503 56 263 1.0 4.0 0.00 0.01 0.00 86 1018.8
20260506103003 56 256 0.0 2.0 0.00 0.01 0.00 87 1018.7
20260506102503 56 285 0.0 2.0 0.00 0.01 0.00 87 1018.7
20260506102003 56 342 0.0 2.0 0.00 0.01 0.00 87 1018.7
20260506101503 56 283 0.0 1.0 0.00 0.01 0.00 86 1018.6
20260506101218 56 266 0.0 1.0 0.00 0.01 0.00 86 1018.6
20260506100503 56 264 0.0 1.0 0.00 0.01 0.00 86 1018.6
20260506100003 55 269 0.0 2.0 0.00 0.01 0.00 86 1018.7
20260506095503 55 276 0.0 2.0 0.00 0.01 0.00 86 1018.7
20260506095218 55 321 0.0 1.0 0.00 0.01 0.00 86 1018.7
20260506094503 56 329 0.0 5.0 0.00 0.01 0.00 86 1018.8
20260506094003 56 329 0.0 5.0 0.00 0.01 0.00 86 1018.8
20260506093503 56 329 0.0 2.0 0.00 0.01 0.00 86 1018.8
20260506093003 56 299 0.0 2.0 0.00 0.01 0.00 85 1018.8
20260506092503 56 277 0.0 1.0 0.00 0.02 0.00 85 1018.7
20260506092003 56 273 0.0 1.0 0.00 0.02 0.00 85 1018.6
20260506091716 56 262 0.0 2.0 0.00 0.02 0.00 85 1018.6
20260506091003 56 259 0.0 2.0 0.00 0.02 0.00 84 1018.5
20260506090503 56 262 0.0 2.0 0.00 0.03 0.00 84 1018.7
20260506090003 56 269 0.0 1.0 0.00 0.03 0.00 84 1018.6
20260506085503 56 269 0.0 1.0 0.00 0.03 0.00 84 1018.7
20260506085003 56 269 0.0 1.0 0.00 0.03 0.00 83 1018.6
20260506084503 56 299 0.0 2.0 0.00 0.03 0.00 83 1018.7
20260506084003 56 299 0.0 2.0 0.00 0.03 0.00 83 1018.7
20260506083503 56 263 0.0 4.0 0.00 0.03 0.00 84 1018.7
20260506083003 56 268 0.0 4.0 0.00 0.03 0.00 84 1018.7
20260506082503 56 290 0.0 2.0 0.00 0.03 0.00 84 1018.7
20260506082003 56 305 0.0 2.0 0.00 0.03 0.00 84 1018.7
20260506081503 56 264 0.0 2.0 0.00 0.04 0.00 84 1018.7
20260506081003 56 259 0.0 2.0 0.00 0.04 0.00 84 1018.7
20260506080503 56 246 0.0 2.0 0.00 0.05 0.00 84 1018.8
20260506073503 56 269 0.0 3.0 0.00 0.08 0.00 85 1018.4
20260506073003 56 274 0.0 2.0 0.00 0.08 0.00 85 1018.4
20260506072717 56 278 0.0 2.0 0.00 0.08 0.00 85 1018.4
20260506072003 56 260 0.0 2.0 0.00 0.08 0.00 86 1018.4
20260506071715 56 261 1.0 3.0 0.00 0.09 0.00 86 1018.3
20260506071003 56 270 0.0 3.0 0.00 0.09 0.00 87 1018.2
20260506070718 56 278 0.0 2.0 0.00 0.09 0.00 87 1018.3
20260506070219 56 276 1.0 3.0 0.00 0.09 0.00 87 1018.3
20260506062503 56 251 0.0 2.0 0.00 0.09 0.09 86 1017.8
20260506062218 56 271 0.0 2.0 0.00 0.09 0.09 86 1017.8
20260506061503 56 273 0.0 2.0 0.00 0.10 0.09 86 1017.7
20260506061216 56 273 0.0 2.0 0.00 0.10 0.09 86 1017.7
20260506060503 57 267 0.0 2.0 0.00 0.10 0.09 86 1017.6
20260506051216 57 269 2.0 5.0 0.00 0.13 0.09 87 1017.4
20260506050503 57 269 1.0 5.0 0.00 0.13 0.09 87 1017.5
20260506050218 57 266 1.0 4.0 0.00 0.13 0.09 87 1017.5
20260506045003 56 265 1.0 5.0 0.00 0.14 0.09 88 1017.2
20260506044716 56 265 1.0 4.0 0.00 0.14 0.09 88 1017.3
20260506044218 56 262 0.0 2.0 0.00 0.15 0.09 88 1017.2
20260506043503 56 288 1.0 5.0 0.00 0.15 0.09 88 1017.2
20260506043003 56 269 0.0 5.0 0.00 0.15 0.09 87 1017.2
20260506042503 56 262 0.0 4.0 0.00 0.15 0.09 87 1017.2
20260506042003 56 259 1.0 4.0 0.00 0.15 0.09 87 1017.1
20260506041718 57 259 1.0 4.0 0.00 0.15 0.09 87 1017.2
20260506041003 57 249 1.0 4.0 0.00 0.15 0.09 87 1017.0
20260506040503 57 233 1.0 3.0 0.00 0.15 0.09 87 1016.9
20260506040003 57 263 1.0 5.0 0.00 0.15 0.09 86 1016.8
20260506035503 57 266 2.0 6.0 0.00 0.15 0.09 86 1016.7
20260506035219 57 265 2.0 6.0 0.00 0.15 0.09 86 1016.7
20260506034503 57 253 1.0 5.0 0.00 0.15 0.09 85 1016.6
20260506034003 57 272 1.0 5.0 0.00 0.15 0.09 85 1016.6
20260506033503 57 281 1.0 5.0 0.00 0.15 0.09 85 1016.4
20260506033003 57 274 1.0 6.0 0.00 0.15 0.09 85 1016.4
20260506032503 57 273 2.0 7.0 0.00 0.15 0.09 85 1016.4
20260506032003 58 267 2.0 7.0 0.00 0.15 0.09 84 1016.3
20260506031718 58 263 2.0 7.0 0.00 0.15 0.09 84 1016.3
20260506031219 58 258 2.0 6.0 0.00 0.15 0.09 84 1016.3
20260506030503 58 265 2.0 6.0 0.00 0.15 0.09 83 1016.1
20260506030217 58 263 2.0 8.0 0.00 0.15 0.09 83 1016.1
20260506025503 58 262 2.0 8.0 0.00 0.15 0.09 83 1016.0
20260506025003 58 272 2.0 7.0 0.00 0.15 0.09 83 1016.0
20260506024503 58 270 3.0 8.0 0.00 0.15 0.09 83 1016.0
20260506024003 58 267 2.0 8.0 0.00 0.15 0.09 83 1016.1
20260506023503 58 271 2.0 7.0 0.00 0.15 0.09 83 1016.0
20260506023003 58 269 3.0 9.0 0.00 0.15 0.09 82 1015.9
20260506022503 59 259 2.0 9.0 0.00 0.15 0.09 81 1015.8
20260506022217 59 267 2.0 6.0 0.00 0.15 0.09 81 1015.8
20260506021503 59 260 2.0 8.0 0.00 0.15 0.09 81 1015.5
20260506021003 59 259 2.0 8.0 0.00 0.15 0.09 81 1015.4
20260506020503 60 270 2.0 10.0 0.00 0.15 0.09 80 1015.5
20260506020003 60 272 3.0 11.0 0.00 0.15 0.09 79 1015.5
20260506015503 60 274 3.0 11.0 0.00 0.15 0.09 79 1015.4
20260506015003 61 288 3.0 9.0 0.00 0.15 0.09 77 1015.4
20260506014503 61 293 2.0 6.0 0.00 0.15 0.09 77 1015.4
20260506014003 61 270 3.0 6.0 0.00 0.15 0.09 76 1015.5
20260506013717 61 269 3.0 7.0 0.00 0.15 0.09 76 1015.4
20260506013003 62 262 2.0 8.0 0.00 0.15 0.09 75 1015.5
20260506012503 63 258 2.0 9.0 0.00 0.15 0.09 74 1015.5
20260506012003 62 268 3.0 9.0 0.00 0.15 0.09 74 1015.6
20260506011503 63 264 3.0 9.0 0.00 0.15 0.09 74 1015.5
20260506011003 62 268 3.0 10.0 0.00 0.15 0.09 74 1015.5
20260506010503 62 281 3.0 10.0 0.00 0.15 0.09 74 1015.5
20260506010003 63 277 1.0 7.0 0.00 0.15 0.09 72 1015.5
20260506005717 63 268 1.0 7.0 0.00 0.15 0.09 72 1015.6
20260506005003 62 269 3.0 9.0 0.00 0.15 0.09 75 1015.4
20260506004504 62 264 3.0 9.0 0.00 0.15 0.09 74 1015.5
20260506004003 62 259 4.0 12.0 0.00 0.15 0.09 75 1015.4